Find Starlink 35214

NORAD ID: 65747 Int'l Des: 2025-216 Owner: SPXS Country: US Constellation: starlink operational
LEOCIRCULAR

リアルタイム位置

3D地球を読み込み中...

Starlink 35214について

説明を読み込み中...

次回通過

Passes for default location (London). Set your location on the main map for personalized predictions.

高度履歴

Loading altitude history...

軌道要素

1 65747U 25216P 26107.16083664 .00008203 00000-0 28876-3 0 9992
2 65747 53.1547 154.1931 0001013 72.9515 287.1597 15.30202028 32438
Epoch: Apr 17, 2026 • Age: 14 hours

現在のステータス

高度 475.0 km
速度 7.63 km/s
衛星直下点 16.58°N, 47.5°E
打ち上げ日 Sep 25, 2025
運用期間 0.5 years
タイプ internet

技術仕様

分類 Payload
質量 575.00 kg
乾燥質量 530.00 kg
総質量 575.00 kg
長さ 0.30 m
直径 4.10 m
スパン 29.00 m
形状 Box + pan
製造者 SPXS
バスタイプ Starlink V2MO
フェーズステータス In Orbit
所有者/国 SPXS/US

Most Searched